Regional Weather Roundup
Issued by NWS

Home | Current Version | Previous Version | Graphics & Text | Print | Product List | Glossary Off
Versions: 1 2 3 4 5 6 7 8 9 10 11 12 13 14 15 16 17 18 19 20 21 22 23 24 25 26 27 28 29 30 31 32 33 34 35 36 37 38 39 40 41 42 43 44 45 46 47 48 49 50

000
ASUS43 KTOP 181408
RWRKS

WEATHER ROUNDUP FOR KANSAS
NATIONAL WEATHER SERVICE GOODLAND KS
800 AM CST WED JAN 18 2017

NOTE:  "FAIR" INDICATES FEW OR NO CLOUDS BELOW 12,000 FEET WITH NO
SIGNIFICANT WEATHER AND/OR OBSTRUCTIONS TO VISIBILITY.

KSZ001>006-013>018-027>032-041>047-181500-
NORTHWEST KANSAS

CITY           SKY/WX    TMP DP  RH WIND       PRES   REMARKS
GOODLAND       CLOUDY    26  23  88 W9        29.92F
HAYS           CLOUDY    31  30  96 S6        30.03S
HILL CITY      PTCLDY    29  28  96 CALM      30.00S
RUSSELL        CLEAR     33  30  88 S10       30.02S WCI  25
$$

KSZ061>065-074>080-084>089-181500-
SOUTHWEST KANSAS

CITY           SKY/WX    TMP DP  RH WIND       PRES   REMARKS
DODGE CITY     CLOUDY    38  35  89 S10       30.03S WCI  31
ELKHART          N/A     40  31  70 SW8         N/A
GARDEN CITY    CLOUDY    33  31  92 S10       29.99F WCI  25
GREAT BEND     CLOUDY    35  32  88 S8        30.04F
LIBERAL        PTCLDY    37  32  81 SE6       30.03S
PRATT          CLOUDY    33  30  91 SW8       30.07S
$$

KSZ066>073-081>083-090>101-181500-
SOUTHEAST KANSAS

CITY           SKY/WX    TMP DP  RH WIND       PRES   REMARKS
CHANUTE        FOG       32  31  96 E5        30.15F VSB 1/4
COFFEYVILLE    CLOUDY    34  33  96 SE3       30.17F FOG
HUTCHINSON     CLEAR     28  26  92 SE7       30.09R
MEDICINE LODGE   N/A     35  31  85 CALM      30.10R
NEWTON         CLEAR     31  29  92 S10       30.10S WCI  22
PARSONS        CLOUDY    34  33  96 E3        30.16F FOG
WICHITA INTL   PTCLDY    31  29  92 S7        30.11R
WICHITA JABRA  CLEAR     31  30  96 S8        30.11R
WICHITA MCCONL CLEAR     32  29  89 S5        30.11R
WINFIELD       CLOUDY    35  34  96 SE6       30.14R
$$

KSZ007>012-019>026-033>040-048>060-102>105-181500-
NORTHEAST KANSAS

CITY           SKY/WX    TMP DP  RH WIND       PRES   REMARKS
CONCORDIA      CLOUDY    28  27  96 CALM      30.04S
EMPORIA        CLEAR     29  29 100 S9        30.12S
LAWRENCE       CLEAR     23  23 100 E7        30.14R FOG
MANHATTAN      CLEAR     24  22  91 CALM      30.08F
MARYSVILLE     CLOUDY    28  27  93 S5        30.07F
OLATHE IND     FOG       29  28  96 S8        30.14F VSB 1/4
OLATHE EXE     FOG       28  28 100 S8        30.14S VSB 1/4
SALINA         CLEAR     30  28  92 S3        30.07
TOPEKA BILLARD CLOUDY    26  22  84 CALM      30.12S
TOPEKA FORBES  CLEAR     27  25  92 SE5       30.12R FOG
$$



USA.gov is the U.S. government's official web portal to all federal, state and local government web resources and services.